When you browse on this site, cookies collect data to enhance your experience and personalize the content and advertising you see.
Visit our Privacy Policy to learn more. By continuing to use the site, you agree to this use of cookies and data.
  • Em Portugal
  • Lista de países
  • Para 7 dias
  • Temperatura da água
  • Mapas de satélite
  • Mapa do tempo
  • Widgets de tempo
  • user-avatar
    Iniciar Sessão

    Previsão horária em Jordanki

    Hoje, 21 Julho, Domingo

    Tempo Temperatura Precipitação Vento Pressão Humidade
    00:00 +19°C° 0 mm 2 m/s 758 mmHg 79%
    01:00 +18°C° 0 mm 3 m/s 758 mmHg 78%
    02:00 +18°C° 0 mm 3 m/s 758 mmHg 78%
    03:00 +18°C° 0 mm 3 m/s 758 mmHg 78%
    04:00 +18°C° 0 mm 3 m/s 757 mmHg 78%
    05:00 +19°C° 0 mm 4 m/s 757 mmHg 77%
    06:00 +21°C° 0 mm 4 m/s 757 mmHg 76%
    07:00 +22°C° 0 mm 4 m/s 757 mmHg 73%
    08:00 +23°C° 0 mm 4 m/s 757 mmHg 71%
    09:00 +23°C° 0 mm 4 m/s 758 mmHg 70%
    10:00 +25°C° 0 mm 4 m/s 758 mmHg 68%
    11:00 +25°C° 0.1 mm 4 m/s 758 mmHg 68%
    12:00 +26°C° 0.1 mm 5 m/s 758 mmHg 67%
    13:00 +26°C° 0.1 mm 5 m/s 758 mmHg 66%
    14:00 +26°C° 0.1 mm 4 m/s 758 mmHg 65%
    15:00 +26°C° 0.1 mm 4 m/s 759 mmHg 64%
    16:00 +26°C° 0.1 mm 3 m/s 759 mmHg 63%
    17:00 +25°C° 0.6 mm 3 m/s 759 mmHg 71%
    18:00 +23°C° 0.6 mm 2 m/s 759 mmHg 79%
    19:00 +20°C° 0.6 mm 2 m/s 759 mmHg 88%
    20:00 +19°C° 0 mm 2 m/s 760 mmHg 89%
    21:00 +18°C° 0 mm 2 m/s 760 mmHg 90%
    22:00 +17°C° 0 mm 2 m/s 761 mmHg 92%
    23:00 +16°C° 0 mm 2 m/s 761 mmHg 93%

    Amanhã, 22 Julho, Segunda-feira

    Tempo Temperatura Precipitação Vento Pressão Humidade
    00:00 +16°C° 0 mm 3 m/s 761 mmHg 94%
    01:00 +14°C° 0 mm 3 m/s 761 mmHg 94%
    02:00 +14°C° 0 mm 3 m/s 761 mmHg 95%
    03:00 +14°C° 0 mm 3 m/s 761 mmHg 96%
    04:00 +14°C° 0 mm 3 m/s 761 mmHg 97%
    05:00 +15°C° 0 mm 4 m/s 761 mmHg 93%
    06:00 +17°C° 0 mm 4 m/s 761 mmHg 89%
    07:00 +19°C° 0 mm 5 m/s 762 mmHg 85%
    08:00 +20°C° 0 mm 5 m/s 762 mmHg 78%
    09:00 +21°C° 0 mm 5 m/s 762 mmHg 70%
    10:00 +22°C° 0 mm 5 m/s 762 mmHg 62%
    11:00 +23°C° 0 mm 5 m/s 762 mmHg 59%
    12:00 +23°C° 0 mm 5 m/s 762 mmHg 56%
    13:00 +25°C° 0 mm 5 m/s 762 mmHg 53%
    14:00 +23°C° 0 mm 5 m/s 762 mmHg 54%
    15:00 +23°C° 0 mm 5 m/s 762 mmHg 56%
    16:00 +23°C° 0 mm 5 m/s 762 mmHg 57%
    17:00 +22°C° 0 mm 4 m/s 762 mmHg 63%
    18:00 +21°C° 0 mm 4 m/s 762 mmHg 69%
    19:00 +19°C° 0 mm 3 m/s 762 mmHg 75%
    20:00 +18°C° 0 mm 3 m/s 762 mmHg 78%
    21:00 +17°C° 0 mm 3 m/s 762 mmHg 82%
    22:00 +14°C° 0 mm 3 m/s 763 mmHg 85%
    23:00 +14°C° 0 mm 3 m/s 763 mmHg 85%

    Depois de amanhã, 23 Julho, Terça-feira

    Tempo Temperatura Precipitação Vento Pressão Humidade
    00:00 +15°C° 0 mm 2 m/s 762 mmHg 85%
    01:00 +15°C° 0 mm 2 m/s 762 mmHg 85%
    02:00 +15°C° 0 mm 2 m/s 762 mmHg 86%
    03:00 +16°C° 0 mm 2 m/s 762 mmHg 87%
    04:00 +16°C° 0 mm 2 m/s 762 mmHg 88%
    05:00 +16°C° 0 mm 2 m/s 762 mmHg 88%
    06:00 +16°C° 0 mm 2 m/s 762 mmHg 89%
    07:00 +17°C° 0 mm 2 m/s 762 mmHg 89%
    08:00 +17°C° 0 mm 3 m/s 762 mmHg 88%
    09:00 +17°C° 0 mm 3 m/s 762 mmHg 86%
    10:00 +18°C° 0 mm 3 m/s 762 mmHg 85%
    11:00 +18°C° 0 mm 3 m/s 762 mmHg 84%
    12:00 +19°C° 0 mm 3 m/s 762 mmHg 84%
    13:00 +19°C° 0 mm 3 m/s 762 mmHg 83%
    14:00 +20°C° 0 mm 3 m/s 762 mmHg 83%
    15:00 +21°C° 0 mm 2 m/s 762 mmHg 83%
    16:00 +21°C° 0 mm 2 m/s 762 mmHg 83%
    17:00 +22°C° 0.1 mm 1 m/s 761 mmHg 85%
    18:00 +22°C° 0.1 mm 1 m/s 761 mmHg 87%
    19:00 +22°C° 0.1 mm 1 m/s 761 mmHg 88%
    20:00 +21°C° 0 mm 1 m/s 761 mmHg 90%
    21:00 +20°C° 0 mm 1 m/s 761 mmHg 92%
    22:00 +19°C° 0 mm 1 m/s 761 mmHg 94%
    23:00 +18°C° 0 mm 1 m/s 761 mmHg 94%

    24 Julho, Quarta-feira

    Tempo Temperatura Precipitação Vento Pressão Humidade
    00:00 +17°C° 0 mm 2 m/s 761 mmHg 95%
    01:00 +17°C° 0 mm 2 m/s 761 mmHg 95%
    02:00 +17°C° 0 mm 2 m/s 761 mmHg 95%
    03:00 +17°C° 0 mm 2 m/s 761 mmHg 95%
    04:00 +17°C° 0 mm 2 m/s 761 mmHg 96%
    05:00 +19°C° 0 mm 2 m/s 761 mmHg 92%
    06:00 +20°C° 0 mm 2 m/s 761 mmHg 88%
    07:00 +23°C° 0 mm 2 m/s 761 mmHg 84%
    08:00 +24°C° 0.2 mm 2 m/s 761 mmHg 80%
    09:00 +25°C° 0.2 mm 2 m/s 761 mmHg 75%
    10:00 +26°C° 0.2 mm 2 m/s 761 mmHg 70%
    11:00 +27°C° 0.1 mm 3 m/s 761 mmHg 67%
    12:00 +28°C° 0.1 mm 3 m/s 761 mmHg 63%
    13:00 +28°C° 0.1 mm 3 m/s 761 mmHg 60%
    14:00 +28°C° 0 mm 3 m/s 761 mmHg 61%
    15:00 +28°C° 0 mm 4 m/s 761 mmHg 63%
    16:00 +27°C° 0 mm 4 m/s 761 mmHg 64%
    17:00 +26°C° 0 mm 3 m/s 761 mmHg 71%
    18:00 +24°C° 0 mm 3 m/s 761 mmHg 78%
    19:00 +23°C° 0 mm 2 m/s 761 mmHg 84%
    20:00 +20°C° 0 mm 2 m/s 761 mmHg 87%
    21:00 +19°C° 0 mm 2 m/s 762 mmHg 90%
    22:00 +19°C° 0 mm 1 m/s 762 mmHg 93%
    23:00 +19°C° 0 mm 1 m/s 762 mmHg 93%

    25 Julho, Quinta-feira

    Tempo Temperatura Precipitação Vento Pressão Humidade
    00:00 +19°C° 0 mm 1 m/s 762 mmHg 93%
    01:00 +18°C° 0 mm 1 m/s 762 mmHg 93%
    02:00 +18°C° 0 mm 1 m/s 762 mmHg 94%
    03:00 +18°C° 0 mm 1 m/s 763 mmHg 94%
    04:00 +18°C° 0 mm 1 m/s 763 mmHg 94%
    05:00 +19°C° 0 mm 1 m/s 763 mmHg 89%
    06:00 +21°C° 0 mm 1 m/s 763 mmHg 84%
    07:00 +22°C° 0 mm 1 m/s 763 mmHg 80%
    08:00 +24°C° 0 mm 2 m/s 763 mmHg 74%
    09:00 +25°C° 0 mm 2 m/s 763 mmHg 68%
    10:00 +26°C° 0 mm 2 m/s 763 mmHg 63%
    11:00 +27°C° 0 mm 2 m/s 763 mmHg 61%
    12:00 +28°C° 0 mm 2 m/s 763 mmHg 58%
    13:00 +29°C° 0 mm 2 m/s 763 mmHg 56%
    14:00 +28°C° 0 mm 3 m/s 762 mmHg 58%
    15:00 +28°C° 0 mm 3 m/s 762 mmHg 61%
    16:00 +28°C° 0 mm 4 m/s 762 mmHg 63%
    17:00 +27°C° 0 mm 3 m/s 762 mmHg 70%
    18:00 +25°C° 0 mm 3 m/s 762 mmHg 76%
    19:00 +24°C° 0 mm 3 m/s 762 mmHg 83%
    20:00 +22°C° 0 mm 3 m/s 762 mmHg 86%
    21:00 +21°C° 0 mm 3 m/s 762 mmHg 90%
    22:00 +20°C° 0 mm 3 m/s 762 mmHg 94%
    23:00 +20°C° 0 mm 2 m/s 762 mmHg 94%

    26 Julho, Sexta-feira

    Tempo Temperatura Precipitação Vento Pressão Humidade
    00:00 +20°C° 0 mm 2 m/s 762 mmHg 93%
    01:00 +19°C° 0 mm 2 m/s 762 mmHg 93%
    02:00 +19°C° 0 mm 2 m/s 762 mmHg 93%
    03:00 +19°C° 0 mm 2 m/s 762 mmHg 93%
    04:00 +19°C° 0 mm 2 m/s 762 mmHg 93%
    05:00 +20°C° 0 mm 2 m/s 762 mmHg 88%
    06:00 +23°C° 0 mm 2 m/s 762 mmHg 82%
    07:00 +25°C° 0 mm 3 m/s 762 mmHg 76%
    08:00 +26°C° 0 mm 3 m/s 762 mmHg 70%
    09:00 +28°C° 0 mm 3 m/s 762 mmHg 64%
    10:00 +29°C° 0 mm 3 m/s 762 mmHg 57%
    11:00 +30°C° 0 mm 3 m/s 762 mmHg 55%
    12:00 +30°C° 0 mm 3 m/s 761 mmHg 53%
    13:00 +32°C° 0 mm 4 m/s 761 mmHg 51%
    14:00 +31°C° 0 mm 3 m/s 761 mmHg 52%
    15:00 +31°C° 0 mm 3 m/s 761 mmHg 52%
    16:00 +31°C° 0 mm 3 m/s 760 mmHg 53%
    17:00 +29°C° 0 mm 3 m/s 760 mmHg 60%
    18:00 +28°C° 0 mm 3 m/s 760 mmHg 66%
    19:00 +26°C° 0 mm 3 m/s 760 mmHg 73%
    20:00 +25°C° 0 mm 3 m/s 760 mmHg 76%
    21:00 +24°C° 0 mm 3 m/s 761 mmHg 79%
    22:00 +22°C° 0 mm 3 m/s 761 mmHg 81%
    23:00 +21°C° 0 mm 3 m/s 761 mmHg 83%
    Mostrar mais